This is the latest recevied weather packets stored in our database for station/object KJ7IVE-13. If no packets are shown the sender has not sent any weather packets the latest 10 day(s).
| Time | Temp. | Humidity | Pressure | Rain* | Wind** | Luminosity | Snow |
|---|---|---|---|---|---|---|---|
| 1777573792 | 15° C | 10% | 1020.4 hPa | 0 mm | - | 783 W/m² | - |
| 1777573184 | 15° C | 10% | 1020.7 hPa | 0 mm | - | 767 W/m² | - |
| 1777572881 | 15.56° C | 10% | 1020.6 hPa | 0 mm | - | 768 W/m² | - |
| 1777570449 | 14.44° C | 10% | 1020.8 hPa | 0 mm | - | 828 W/m² | - |
| 1777569536 | 13.89° C | 10% | 1021.1 hPa | 0 mm | - | 742 W/m² | - |
| 1777568930 | 13.33° C | 10% | 1020.8 hPa | 0 mm | - | 725 W/m² | - |
| 1777568020 | 12.78° C | 10% | 1021 hPa | 0 mm | - | 690 W/m² | - |
| 1777567717 | 12.78° C | 10% | 1021.1 hPa | 0 mm | - | 667 W/m² | - |
| 1777567112 | 12.78° C | 10% | 1021.1 hPa | 0 mm | - | 651 W/m² | - |
| 1777566809 | 12.78° C | 10% | 1021.1 hPa | 0 mm | - | 667 W/m² | - |
| 1777566507 | 12.78° C | 10% | 1021.2 hPa | 0 mm | - | 641 W/m² | - |
| 1777564989 | 12.22° C | 10% | 1021.1 hPa | 0 mm | - | 527 W/m² | - |
| 1777563168 | 10.56° C | 10% | 1021.4 hPa | 0 mm | - | 352 W/m² | - |
| 1777562562 | 10.56° C | 10% | 1021.5 hPa | 0 mm | - | 318 W/m² | - |
| 1777561350 | 11.11° C | 10% | 1021.4 hPa | 0 mm | - | 256 W/m² | - |
| 1777560136 | 9.44° C | 10% | 1021.2 hPa | 0 mm | - | 220 W/m² | - |
| 1777558926 | 7.78° C | 10% | 1021.6 hPa | 0 mm | - | 165 W/m² | - |
| 1777558318 | 7.78° C | 10% | 1021.5 hPa | 0 mm | - | 139 W/m² | - |
| 1777555892 | 6.11° C | 10% | 1021.2 hPa | 0 mm | - | 49 W/m² | - |
| 1777555280 | 5.56° C | 10% | 1021.1 hPa | 0 mm | - | 36 W/m² | - |
| 1777554976 | 5° C | 10% | 1021 hPa | 0 mm | - | 32 W/m² | - |
| 1777554673 | 5° C | 10% | 1021.1 hPa | 0 mm | - | 29 W/m² | - |
| 1777554370 | 5° C | 10% | 1021.1 hPa | 0 mm | - | 27 W/m² | - |
| 1777553460 | 4.44° C | 10% | 1020.9 hPa | 0 mm | - | 11 W/m² | - |
| 1777552545 | 4.44° C | 10% | 1020.7 hPa | 0 mm | - | 3 W/m² | - |
* Rain latest hour (hover to see other rain measurements)
** Current wind speed in m/s (hover to see current wind gust speed)